Flag for El Salvador Weather past 2 weeks in Santa Ana, El Salvador

Now
86 °F

Passing clouds.


Feels Like: 92 °F
Forecast: N/A
Wind: 8 mph from South

Location: San Salvador / Ilopango

Current Time: Apr 1, 2015 at 5:00:48 PM

Latest Report: Apr 1, 2015 at 3:50 PM


Visibility: N/A

Pressure: 29.95 "Hg

Humidity: 62%

Dew point: 72 °F

Location of Santa AnaLocation

Historic Weather in Santa Ana — Graph

°F

Santa Ana temperature yesterday

Maximum temperature yesterday: 93 °F (at 1:50 PM)
Minimum temperature yesterday: 68 °F (at 5:50 AM)
Average temperature yesterday: 80 °F

Past Weeks' High & Low Weather Summary

 TemperatureHumidityPressure
High93 °F (Mar 28, 1:50 PM)100% (Mar 23, 6:50 AM)30.12 "Hg (Mar 23, 6:50 AM)
Low64 °F (Mar 18, 5:50 AM)36% (Mar 18, 1:50 PM)29.89 "Hg (Mar 27, 3:50 PM)
Average78 °F72%30.02 "Hg
* Reported Mar 17 3:50 PM — Apr 1 3:50 PM, Santa Ana, Weather by CustomWeather, © 2015

Note: Actual official high and low records may vary slightly from our data, if they occured in-between our weather recording intervals... More about our weather records

Advertising

Santa Ana weather history for previous 24 hours

 ConditionsComfort  
Time TempWeatherWind HumidityBarometerVisibility
3:50 PM
Wed, Apr 1
86 °FPassing clouds.8 mph62%29.95 "HgN/A
2:50 PM88 °FPassing clouds.14 mph59%29.95 "HgN/A
12:50 PM90 °FScattered clouds.7 mph49%29.98 "HgN/A
11:50 AM86 °FScattered clouds.2 mph55%30.01 "HgN/A
9:50 AM82 °FPassing clouds.5 mph58%30.04 "HgN/A
8:50 AM79 °FPassing clouds.8 mph61%30.07 "HgN/A
7:50 AM75 °FPassing clouds.6 mph69%30.01 "HgN/A
6:50 AM72 °FScattered clouds.6 mph78%30.01 "HgN/A
5:50 AM72 °FPassing clouds.6 mph78%29.98 "HgN/A
11:50 PM
Tue, Mar 31
73 °FClear.6 mph74%29.98 "Hg10 mi
10:50 PM75 °FClear.8 mph69%30.01 "Hg10 mi
9:50 PM75 °FClear.6 mph74%29.98 "Hg10 mi
8:50 PM77 °FWarm.No wind79%29.95 "HgN/A
7:50 PM79 °FPassing clouds.5 mph70%29.92 "HgN/A
6:50 PM79 °FPassing clouds.6 mph84%29.92 "HgN/A
5:50 PM81 °FPassing clouds.8 mph70%29.89 "HgN/A
Weather by CustomWeather, © 2015

See weather overviewHow to use our weather pages